| time (UTC) | temp C | wind direction | speed KPH | gust KPH | rain 1hr cm | rain 24hr cm | rain mn cm | humidity % | barometer mb |
| 20260507114607 | 12 | 117 | 6.4 | 14.5 | 0.00 | 0.00 | 0.00 | 65 | 1016.6 |
| 20260507113103 | 12 | 118 | 8.0 | 14.5 | 0.00 | 0.00 | 0.00 | 65 | 1016.5 |
| 20260507111559 | 12 | 99 | 8.0 | 14.5 | 0.00 | 0.00 | 0.00 | 65 | 1016.6 |
| 20260507110104 | 12 | 117 | 4.8 | 14.5 | 0.00 | 0.00 | 0.00 | 65 | 1016.6 |
| 20260507104557 | 12 | 128 | 4.8 | 14.5 | 0.00 | 0.00 | 0.00 | 66 | 1016.6 |
| 20260507103059 | 12 | 48 | 3.2 | 12.9 | 0.00 | 0.00 | 0.00 | 66 | 1016.7 |
| 20260507101558 | 12 | 89 | 6.4 | 14.5 | 0.00 | 0.00 | 0.00 | 66 | 1016.7 |
| 20260507100059 | 12 | 132 | 6.4 | 11.3 | 0.00 | 0.00 | 0.00 | 65 | 1016.6 |
| 20260507094555 | 12 | 117 | 0.0 | 11.3 | 0.00 | 0.00 | 0.00 | 66 | 1016.5 |
| 20260507093055 | 12 | 0 | 0.0 | 8.0 | 0.00 | 0.00 | 0.00 | 67 | 1016.6 |
| 20260507091601 | 12 | 87 | 6.4 | 12.9 | 0.00 | 0.00 | 0.00 | 64 | 1016.6 |
| 20260507090056 | 12 | 120 | 4.8 | 12.9 | 0.00 | 0.00 | 0.00 | 66 | 1016.5 |
| 20260507084559 | 11 | 96 | 4.8 | 12.9 | 0.00 | 0.00 | 0.00 | 68 | 1016.4 |
| 20260507083056 | 11 | 173 | 3.2 | 9.7 | 0.00 | 0.00 | 0.00 | 71 | 1016.4 |
| 20260507081552 | 11 | 89 | 0.0 | 11.3 | 0.00 | 0.00 | 0.00 | 73 | 1016.3 |
| 20260507080121 | 10 | 46 | 3.2 | 9.7 | 0.00 | 0.00 | 0.00 | 74 | 1016.3 |
| 20260507074601 | 10 | 38 | 0.0 | 9.7 | 0.00 | 0.00 | 0.00 | 75 | 1016.1 |
| 20260507073108 | 10 | 111 | 3.2 | 9.7 | 0.00 | 0.00 | 0.00 | 76 | 1016.1 |
| 20260507071606 | 9 | 82 | 3.2 | 9.7 | 0.00 | 0.00 | 0.00 | 79 | 1016.0 |
| 20260507070054 | 8 | 87 | 4.8 | 14.5 | 0.00 | 0.00 | 0.00 | 81 | 1016.0 |
| 20260507064557 | 8 | 71 | 3.2 | 11.3 | 0.00 | 0.00 | 0.00 | 82 | 1015.9 |
| 20260507063058 | 8 | 75 | 3.2 | 11.3 | 0.00 | 0.00 | 0.00 | 83 | 1016.0 |
| 20260507061554 | 7 | 51 | 1.6 | 6.4 | 0.00 | 0.00 | 0.00 | 83 | 1015.9 |
| 20260507060053 | 7 | 44 | 1.6 | 8.0 | 0.00 | 0.00 | 0.00 | 83 | 1015.8 |
| 20260507054605 | 7 | 28 | 0.0 | 6.4 | 0.00 | 0.00 | 0.00 | 83 | 1015.7 |
| 20260507053055 | 7 | 33 | 1.6 | 8.0 | 0.00 | 0.00 | 0.00 | 83 | 1015.7 |
| 20260507051552 | 7 | 32 | 0.0 | 4.8 | 0.00 | 0.00 | 0.00 | 83 | 1015.6 |
| 20260507050057 | 7 | 36 | 0.0 | 6.4 | 0.00 | 0.00 | 0.00 | 83 | 1015.5 |
| 20260507044600 | 7 | 42 | 0.0 | 6.4 | 0.00 | 0.00 | 0.00 | 83 | 1015.4 |
| 20260507043052 | 7 | 0 | 0.0 | 8.0 | 0.00 | 0.00 | 0.00 | 83 | 1015.3 |
| 20260507041601 | 7 | 0 | 1.6 | 4.8 | 0.00 | 0.00 | 0.00 | 83 | 1015.3 |
| 20260507040105 | 7 | 36 | 0.0 | 4.8 | 0.00 | 0.00 | 0.00 | 83 | 1015.3 |
| 20260507034559 | 7 | 27 | 1.6 | 4.8 | 0.00 | 0.00 | 0.00 | 83 | 1015.3 |
| 20260507033057 | 7 | 0 | 0.0 | 4.8 | 0.00 | 0.00 | 0.00 | 83 | 1015.2 |
| 20260507031606 | 7 | 32 | 0.0 | 4.8 | 0.00 | 0.00 | 0.00 | 83 | 1015.3 |
| 20260507030056 | 7 | 0 | 0.0 | 4.8 | 0.00 | 0.00 | 0.00 | 83 | 1015.3 |
| 20260507024557 | 7 | 5 | 0.0 | 4.8 | 0.00 | 0.00 | 0.00 | 83 | 1015.3 |
| 20260507023056 | 7 | 25 | 0.0 | 6.4 | 0.00 | 0.00 | 0.00 | 82 | 1015.2 |
| 20260507021556 | 7 | 0 | 0.0 | 4.8 | 0.00 | 0.00 | 0.00 | 82 | 1015.2 |
| 20260507014608 | 7 | 30 | 0.0 | 4.8 | 0.00 | 0.00 | 0.00 | 81 | 1015.1 |
| 20260507013054 | 8 | 0 | 0.0 | 4.8 | 0.00 | 0.00 | 0.00 | 81 | 1015.1 |
| 20260507011603 | 8 | 50 | 1.6 | 6.4 | 0.00 | 0.00 | 0.00 | 81 | 1015.0 |
| 20260507010057 | 8 | 64 | 0.0 | 4.8 | 0.00 | 0.00 | 0.00 | 81 | 1015.0 |
| 20260507004602 | 8 | 0 | 0.0 | 4.8 | 0.00 | 0.00 | 0.00 | 81 | 1015.0 |
| 20260507003104 | 8 | 57 | 1.6 | 6.4 | 0.00 | 0.00 | 0.00 | 80 | 1015.0 |
| 20260507001615 | 8 | 0 | 0.0 | 4.8 | 0.00 | 0.00 | 0.00 | 80 | 1015.0 |
| 20260507000059 | 8 | 0 | 1.6 | 8.0 | 0.00 | 0.00 | 0.00 | 80 | 1015.2 |
| 20260506234607 | 8 | 0 | 3.2 | 6.4 | 0.00 | 0.00 | 0.00 | 80 | 1015.2 |
| 20260506233056 | 8 | 77 | 1.6 | 8.0 | 0.00 | 0.00 | 0.00 | 80 | 1015.2 |
| 20260506231558 | 8 | 51 | 3.2 | 9.7 | 0.00 | 0.00 | 0.00 | 80 | 1015.1 |
| 20260506230100 | 8 | 74 | 0.0 | 6.4 | 0.00 | 0.00 | 0.00 | 80 | 1015.0 |
| 20260506224556 | 8 | 76 | 1.6 | 6.4 | 0.00 | 0.00 | 0.00 | 80 | 1014.9 |
| 20260506223104 | 8 | 75 | 3.2 | 9.7 | 0.00 | 0.00 | 0.00 | 80 | 1014.9 |
| 20260506221557 | 9 | 0 | 0.0 | 6.4 | 0.00 | 0.00 | 0.00 | 80 | 1014.9 |
| 20260506220107 | 9 | 85 | 0.0 | 6.4 | 0.00 | 0.00 | 0.00 | 80 | 1014.6 |
| 20260506214602 | 9 | 78 | 1.6 | 4.8 | 0.00 | 0.00 | 0.00 | 80 | 1014.6 |
| 20260506213102 | 9 | 88 | 1.6 | 6.4 | 0.00 | 0.00 | 0.00 | 80 | 1014.6 |
| 20260506211559 | 9 | 77 | 1.6 | 8.0 | 0.00 | 0.00 | 0.00 | 80 | 1014.5 |
| 20260506210117 | 10 | 76 | 3.2 | 6.4 | 0.00 | 0.00 | 0.00 | 79 | 1014.5 |
| 20260506204555 | 10 | 79 | 1.6 | 6.4 | 0.00 | 0.00 | 0.00 | 78 | 1014.5 |
| 20260506203139 | 10 | 76 | 1.6 | 6.4 | 0.00 | 0.00 | 0.00 | 77 | 1014.3 |
| 20260506201555 | 10 | 40 | 3.2 | 12.9 | 0.00 | 0.00 | 0.00 | 74 | 1014.2 |
| 20260506200059 | 11 | 57 | 1.6 | 8.0 | 0.00 | 0.00 | 0.00 | 72 | 1014.1 |
| 20260506194559 | 11 | 61 | 1.6 | 8.0 | 0.00 | 0.00 | 0.00 | 72 | 1014.0 |
| 20260506193058 | 11 | 0 | 0.0 | 8.0 | 0.00 | 0.00 | 0.00 | 71 | 1013.8 |
| 20260506191559 | 11 | 45 | 3.2 | 9.7 | 0.00 | 0.00 | 0.00 | 71 | 1013.7 |
| 20260506190058 | 11 | 0 | 1.6 | 8.0 | 0.00 | 0.00 | 0.00 | 70 | 1013.5 |
| 20260506184601 | 11 | 67 | 1.6 | 9.7 | 0.00 | 0.00 | 0.00 | 69 | 1013.5 |
| 20260506183101 | 11 | 0 | 1.6 | 12.9 | 0.00 | 0.00 | 0.00 | 69 | 1013.4 |
| 20260506181600 | 11 | 36 | 1.6 | 11.3 | 0.00 | 0.00 | 0.00 | 67 | 1013.4 |
| 20260506180055 | 12 | 38 | 3.2 | 14.5 | 0.00 | 0.00 | 0.00 | 66 | 1013.1 |
| 20260506174607 | 11 | 346 | 4.8 | 14.5 | 0.00 | 0.00 | 0.00 | 65 | 1012.9 |
| 20260506173059 | 12 | 38 | 3.2 | 11.3 | 0.00 | 0.00 | 0.00 | 64 | 1012.9 |
| 20260506171602 | 12 | 54 | 1.6 | 11.3 | 0.00 | 0.00 | 0.00 | 65 | 1012.8 |
| 20260506170100 | 12 | 5 | 4.8 | 14.5 | 0.00 | 0.00 | 0.00 | 65 | 1012.7 |
| 20260506164557 | 12 | 15 | 4.8 | 14.5 | 0.00 | 0.00 | 0.00 | 65 | 1012.7 |
| 20260506163116 | 12 | 34 | 4.8 | 17.7 | 0.00 | 0.00 | 0.00 | 65 | 1012.7 |
| 20260506161552 | 12 | 66 | 4.8 | 16.1 | 0.00 | 0.00 | 0.00 | 65 | 1012.8 |
| 20260506160108 | 12 | 32 | 6.4 | 19.3 | 0.00 | 0.00 | 0.00 | 65 | 1012.8 |
| 20260506154558 | 12 | 360 | 4.8 | 14.5 | 0.00 | 0.00 | 0.00 | 68 | 1012.9 |
| 20260506153114 | 12 | 350 | 4.8 | 20.9 | 0.00 | 0.00 | 0.00 | 66 | 1012.9 |
| 20260506151555 | 11 | 24 | 4.8 | 16.1 | 0.00 | 0.00 | 0.00 | 68 | 1012.9 |
| 20260506150058 | 12 | 53 | 4.8 | 14.5 | 0.00 | 0.00 | 0.00 | 67 | 1012.9 |
| 20260506144610 | 12 | 9 | 6.4 | 17.7 | 0.00 | 0.00 | 0.00 | 64 | 1012.8 |
| 20260506143056 | 12 | 11 | 12.9 | 27.4 | 0.00 | 0.00 | 0.00 | 64 | 1012.6 |
| 20260506141556 | 12 | 338 | 8.0 | 25.7 | 0.00 | 0.00 | 0.00 | 64 | 1012.7 |
| 20260506140104 | 12 | 5 | 8.0 | 20.9 | 0.00 | 0.00 | 0.00 | 62 | 1012.5 |
| 20260506134600 | 12 | 350 | 8.0 | 20.9 | 0.00 | 0.00 | 0.00 | 62 | 1012.5 |
| 20260506133100 | 12 | 55 | 9.7 | 25.7 | 0.00 | 0.00 | 0.00 | 60 | 1012.4 |
| 20260506131601 | 12 | 5 | 9.7 | 19.3 | 0.00 | 0.00 | 0.00 | 60 | 1012.4 |
| 20260506130056 | 12 | 328 | 6.4 | 25.7 | 0.00 | 0.00 | 0.00 | 62 | 1012.5 |
| 20260506124605 | 12 | 49 | 9.7 | 20.9 | 0.00 | 0.00 | 0.00 | 63 | 1012.7 |
| 20260506123111 | 13 | 310 | 6.4 | 19.3 | 0.00 | 0.00 | 0.00 | 63 | 1012.6 |
| 20260506121612 | 13 | 344 | 8.0 | 24.1 | 0.00 | 0.00 | 0.00 | 63 | 1012.6 |
| 20260506120059 | 12 | 5 | 9.7 | 24.1 | 0.00 | 0.00 | 0.00 | 66 | 1012.7 |